FW4606 Weather Reports


time (UTC)temp
F
wind
direction
speed
knots
gust
knots
rain 1hr
in
rain 24hr
in
rain mn
in
humidity
%
barometer
mb
20260902210911 87 356 0.9 1.7 0.00 0.00 0.00 55 1011.4
20260902210409 87 356 0.9 2.6 0.00 0.00 0.00 54 1011.3
20260902210141 87 345 0.0 2.6 0.00 0.00 0.00 54 1011.3
20260902205409 88 333 0.0 2.6 0.00 0.00 0.00 54 1011.3
20260902205143 87 350 0.9 5.2 0.00 0.00 0.00 54 1011.4
20260902204411 87 76 0.9 5.2 0.00 0.00 0.00 54 1011.5
20260902203909 87 347 0.0 2.6 0.00 0.00 0.00 55 1011.5
20260902203409 88 328 0.0 2.6 0.00 0.00 0.00 56 1011.6
20260902202909 88 257 0.9 5.2 0.00 0.00 0.00 55 1011.6
20260902202411 88 152 0.9 5.2 0.00 0.00 0.00 53 1011.6
20260902201909 88 118 0.0 1.7 0.00 0.00 0.00 54 1011.5
20260902201411 88 93 0.0 1.7 0.00 0.00 0.00 52 1011.5
20260902200914 88 49 0.0 1.7 0.00 0.00 0.00 55 1011.6
20260902200411 87 126 0.0 3.5 0.00 0.00 0.00 55 1011.7
20260902195910 87 108 0.0 3.5 0.00 0.00 0.00 51 1011.7
20260902195640 87 257 0.0 1.7 0.00 0.00 0.00 51 1011.8
20260902194907 87 204 0.0 3.5 0.00 0.00 0.00 54 1011.9
20260902194638 87 333 0.9 3.5 0.00 0.00 0.00 54 1011.8
20260902194526 87 87 0.9 2.6 0.00 0.00 0.00 53 1011.9
20260902193406 86 214 0.9 2.6 0.00 0.00 0.00 53 1011.9
20260902192901 86 75 0.9 2.6 0.00 0.00 0.00 55 1011.9
20260902192633 86 218 0.9 3.5 0.00 0.00 0.00 53 1012.0
20260902191903 85 113 0.0 3.5 0.00 0.00 0.00 55 1012.1
20260902191401 85 15 0.0 1.7 0.00 0.00 0.00 57 1012.1
20260902190901 85 349 0.0 1.7 0.00 0.00 0.00 57 1012.3
20260902190403 85 82 0.0 2.6 0.00 0.00 0.00 54 1012.3
20260902185901 86 347 0.0 2.6 0.00 0.00 0.00 53 1012.3
20260902185357 86 117 0.9 3.5 0.00 0.00 0.00 54 1012.3
20260902184858 85 356 0.9 3.5 0.00 0.00 0.00 54 1012.2
20260902184350 85 88 0.9 4.3 0.00 0.00 0.00 55 1012.4
20260902183845 85 153 0.9 4.3 0.00 0.00 0.00 57 1012.4
20260902183344 85 215 0.9 2.6 0.00 0.00 0.00 57 1012.5
20260902183115 85 359 0.0 2.6 0.00 0.00 0.00 59 1012.6
20260902182341 84 324 0.0 2.6 0.00 0.00 0.00 57 1012.7
20260902181842 84 120 0.9 2.6 0.00 0.00 0.00 55 1012.8
20260902181341 85 335 0.9 5.2 0.00 0.00 0.00 56 1012.8
20260902181109 84 152 0.9 5.2 0.00 0.00 0.00 55 1012.8
20260902180610 84 240 0.9 4.3 0.00 0.00 0.00 58 1012.8
20260902180503 84 131 0.9 5.2 0.00 0.00 0.00 58 1012.8
20260902175337 85 89 0.9 5.2 0.00 0.00 0.00 57 1012.8
20260902174834 85 331 0.0 0.9 0.00 0.00 0.00 60 1012.7
20260902174334 84 56 0.0 0.9 0.00 0.00 0.00 60 1012.8
20260902174103 84 6 0.0 3.5 0.00 0.00 0.00 58 1012.9
20260902173604 84 12 0.0 3.5 0.00 0.00 0.00 60 1013.1
20260902172832 83 36 0.0 2.6 0.00 0.00 0.00 61 1013.2
20260902172332 83 204 0.0 2.6 0.00 0.00 0.00 60 1013.4
20260902172106 82 329 0.9 2.6 0.00 0.00 0.00 59 1013.4
20260902171328 83 104 0.0 2.6 0.00 0.00 0.00 58 1013.1
20260902170826 83 304 0.0 1.7 0.00 0.00 0.00 61 1013.1
20260902170818 82 335 0.0 2.6 0.00 0.00 0.00 62 1013.4
20260902165811 82 16 0.0 3.5 0.00 0.00 0.00 61 1013.4
20260902165309 82 335 0.9 3.5 0.00 0.00 0.00 63 1013.2
20260902164803 82 345 0.0 2.6 0.00 0.00 0.00 63 1013.1
20260902164537 81 108 0.0 4.3 0.00 0.00 0.00 65 1013.2
20260902163802 81 75 0.0 4.3 0.00 0.00 0.00 64 1013.2
20260902163259 81 95 0.0 3.5 0.00 0.00 0.00 65 1013.2
20260902162759 80 93 0.0 2.6 0.00 0.00 0.00 65 1013.4
20260902162257 80 109 0.0 2.6 0.00 0.00 0.00 68 1013.4
20260902162029 80 222 0.0 1.7 0.00 0.00 0.00 67 1013.6
20260902161258 79 58 0.0 0.9 0.00 0.00 0.00 68 1013.6
20260902160755 79 57 0.0 0.9 0.00 0.00 0.00 68 1013.4
20260902160254 79 108 0.0 0.9 0.00 0.00 0.00 69 1013.1
20260902155753 78 71 0.0 0.0 0.00 0.00 0.00 69 1013.1
20260902155252 78 60 0.0 0.9 0.00 0.00 0.00 70 1013.0
20260902154752 78 15 0.0 0.9 0.00 0.00 0.00 72 1013.0
20260902154250 77 17 0.0 0.9 0.00 0.00 0.00 71 1013.0
20260902153749 77 117 0.0 0.9 0.00 0.00 0.00 72 1013.0
20260902153250 77 142 0.0 0.0 0.00 0.00 0.00 73 1013.0
20260902152750 76 146 0.0 1.7 0.00 0.00 0.00 73 1013.0
20260902152516 76 203 0.0 2.6 0.00 0.00 0.00 72 1013.1
20260902151737 76 153 0.0 2.6 0.00 0.00 0.00 73 1013.1
20260902151503 76 239 0.0 2.6 0.00 0.00 0.00 76 1013.1
20260902150725 75 267 0.0 2.6 0.00 0.00 0.00 76 1013.1
20260902150219 75 228 0.0 0.9 0.00 0.00 0.00 75 1013.2
20260902145713 74 134 0.0 0.9 0.00 0.00 0.00 77 1013.4
20260902145208 74 233 0.0 0.9 0.00 0.00 0.00 77 1013.0
20260902144702 74 184 0.0 0.0 0.00 0.00 0.00 78 1012.7
20260902144156 73 136 0.0 0.9 0.00 0.00 0.00 80 1012.8
20260902143650 72 110 0.0 0.9 0.00 0.00 0.00 81 1012.9
20260902143415 71 156 0.0 0.9 0.00 0.00 0.00 83 1013.0
20260902142640 71 156 0.0 0.9 0.00 0.00 0.00 83 1013.2
20260902142132 70 120 0.0 0.9 0.00 0.00 0.00 84 1013.4
20260902141626 70 186 0.0 0.9 0.00 0.00 0.00 85 1013.4
20260902141120 70 352 0.0 0.9 0.00 0.00 0.00 85 1013.4
20260902140847 69 352 0.0 0.9 0.00 0.00 0.00 85 1013.5
20260902140108 69 352 0.0 0.9 0.00 0.00 0.00 85 1013.4
20260902135602 69 158 0.0 0.9 0.00 0.00 0.00 86 1013.5
20260902135056 69 145 0.0 0.9 0.00 0.00 0.00 86 1013.4
20260902134549 69 169 0.0 0.9 0.00 0.00 0.00 86 1013.4
20260902134044 69 169 0.0 1.7 0.00 0.00 0.00 86 1013.2
20260902133538 68 246 0.0 1.7 0.00 0.00 0.00 86 1013.2
20260902133032 68 242 0.0 1.7 0.00 0.00 0.00 86 1013.5
20260902132526 68 197 0.0 1.7 0.00 0.00 0.00 87 1013.4
20260902132251 68 169 0.0 1.7 0.00 0.00 0.00 87 1013.4
20260902131514 68 160 0.0 0.9 0.00 0.00 0.00 87 1013.4
20260902131009 68 120 0.0 0.9 0.00 0.00 0.00 88 1013.5
20260902131004 68 120 0.0 0.9 0.00 0.00 0.00 88 1013.5
20260902125956 67 120 0.0 0.9 0.00 0.00 0.00 89 1013.4
20260902125450 67 164 0.0 0.0 0.00 0.00 0.00 90 1013.5
20260902125215 67 163 0.0 0.0 0.00 0.00 0.00 90 1013.5
20260902124438 67 164 0.0 0.0 0.00 0.00 0.00 90 1013.5
20260902124202 67 164 0.0 0.0 0.00 0.00 0.00 90 1013.6
20260902123425 67 163 0.0 0.0 0.00 0.00 0.00 90 1013.8
20260902122920 67 163 0.0 0.0 0.00 0.00 0.00 90 1013.6
20260902122413 67 163 0.0 0.0 0.00 0.00 0.00 90 1013.4
20260902121908 67 164 0.0 0.0 0.00 0.00 0.00 90 1013.5
20260902121402 66 164 0.0 0.0 0.00 0.00 0.00 90 1013.4
20260902120856 67 163 0.0 0.0 0.00 0.00 0.00 90 1013.5
20260902120350 67 163 0.0 0.0 0.00 0.00 0.00 90 1013.5
20260902115844 66 163 0.0 0.0 0.00 0.00 0.00 90 1013.6
20260902115338 66 163 0.0 0.0 0.00 0.00 0.00 90 1013.9
20260902114832 66 163 0.0 0.0 0.00 0.00 0.00 90 1013.8
20260902114326 66 163 0.0 0.0 0.00 0.00 0.00 90 1014.0
20260902113820 66 164 0.0 0.0 0.00 0.00 0.00 90 1013.9
20260902113313 66 163 0.0 0.0 0.00 0.00 0.00 90 1013.7
20260902112808 66 164 0.0 0.0 0.00 0.00 0.00 90 1013.7
20260902112305 67 163 0.0 0.0 0.00 0.00 0.00 90 1013.6
20260902111756 67 163 0.0 0.0 0.00 0.00 0.00 90 1013.5
20260902111249 67 163 0.0 0.0 0.00 0.00 0.00 90 1013.7
20260902111015 67 163 0.0 0.0 0.00 0.00 0.00 90 1013.6
20260902110238 67 163 0.0 0.0 0.00 0.00 0.00 90 1013.5
20260902110006 66 163 0.0 0.0 0.00 0.00 0.00 90 1013.5
20260902105226 66 164 0.0 0.0 0.00 0.00 0.00 90 1013.6
20260902104719 66 163 0.0 0.0 0.00 0.00 0.00 90 1013.6
20260902104214 66 163 0.0 0.0 0.00 0.00 0.00 90 1013.6
20260902103708 66 164 0.0 0.9 0.00 0.00 0.00 91 1013.8
20260902103202 66 164 0.0 0.9 0.00 0.00 0.00 91 1013.7
20260902102655 66 163 0.0 0.0 0.00 0.00 0.00 91 1013.6
20260902102150 66 163 0.0 0.0 0.00 0.00 0.00 91 1013.7
20260902101644 66 163 0.0 0.9 0.00 0.00 0.00 90 1013.6
20260902101137 66 163 0.0 0.9 0.00 0.00 0.00 90 1013.5
20260902100632 67 312 0.0 0.0 0.00 0.00 0.00 90 1012.9
20260902100358 67 314 0.0 0.0 0.00 0.00 0.00 90 1012.8
20260902095622 67 314 0.0 0.0 0.00 0.00 0.00 90 1012.7
20260902095344 67 313 0.0 0.0 0.00 0.00 0.00 89 1012.6
20260902094607 67 314 0.0 0.0 0.00 0.00 0.00 89 1012.6
20260902094102 67 314 0.0 0.0 0.00 0.00 0.00 89 1012.3
20260902093556 68 314 0.0 0.0 0.00 0.00 0.00 88 1012.2
20260902092544 68 314 0.0 0.0 0.00 0.00 0.00 88 1011.9
20260902092037 68 314 0.0 0.9 0.00 0.00 0.00 88 1012.2
20260902091532 68 314 0.0 0.9 0.00 0.00 0.00 88 1012.2
20260902091026 67 314 0.0 0.9 0.00 0.00 0.00 89 1012.3
20260902090750 67 310 0.0 0.9 0.00 0.00 0.00 89 1012.4
20260902090014 67 310 0.0 0.9 0.00 0.00 0.00 89 1012.2
20260902085508 67 311 0.0 0.9 0.00 0.00 0.00 90 1012.3
20260902085234 67 239 0.0 0.0 0.00 0.00 0.00 90 1012.7
20260902084957 67 239 0.0 0.0 0.00 0.00 0.00 90 1012.9
20260902083950 67 239 0.0 0.0 0.00 0.00 0.00 90 1012.8
20260902083443 67 239 0.0 0.0 0.00 0.00 0.00 90 1012.8
20260902082937 67 239 0.0 0.0 0.00 0.00 0.00 90 1012.8
20260902082432 67 239 0.0 0.0 0.00 0.00 0.00 89 1012.8
20260902082156 67 239 0.0 0.0 0.00 0.00 0.00 89 1013.0
20260902081420 67 239 0.0 0.0 0.00 0.00 0.00 89 1013.2
20260902080914 67 239 0.0 0.0 0.00 0.00 0.00 89 1013.2
20260902080411 67 239 0.0 0.0 0.00 0.00 0.00 89 1013.1
20260902080405 67 239 0.0 0.0 0.00 0.00 0.00 89 1013.0
20260902075627 67 239 0.0 0.9 0.00 0.00 0.00 89 1012.8
20260902075120 67 239 0.0 0.9 0.00 0.00 0.00 89 1013.2
20260902074344 67 152 0.0 0.0 0.00 0.00 0.00 90 1013.2
20260902073838 67 152 0.0 0.0 0.00 0.00 0.00 89 1013.2
20260902073332 67 162 0.0 0.0 0.00 0.00 0.00 89 1013.1
20260902072826 67 162 0.0 0.0 0.00 0.00 0.00 89 1013.1
20260902072320 68 163 0.0 0.0 0.00 0.00 0.00 88 1013.4
20260902071813 68 144 0.0 0.0 0.00 0.00 0.00 88 1013.4
20260902071538 68 144 0.0 0.9 0.00 0.00 0.00 88 1013.5
20260902070802 68 144 0.0 0.9 0.00 0.00 0.00 88 1013.6
20260902070527 68 143 0.0 0.0 0.00 0.00 0.00 88 1013.7
20260902070021 68 144 0.0 0.0 0.00 0.00 0.00 87 1013.8
20260902065245 67 143 0.0 0.0 0.00 0.00 0.00 87 1013.9
20260902064738 67 144 0.0 0.0 0.00 0.00 0.00 87 1014.0
20260902064231 67 144 0.0 0.0 0.00 0.00 0.00 87 1014.2
20260902063726 67 144 0.0 0.0 0.00 0.00 0.00 88 1014.1
20260902063219 66 144 0.0 0.0 0.00 0.00 0.00 88 1014.0
20260902062713 66 144 0.0 0.0 0.00 0.00 0.00 88 1014.0
20260902062207 66 143 0.0 0.0 0.00 0.00 0.00 87 1013.8
20260902061702 67 144 0.0 0.0 0.00 0.00 0.00 87 1013.6
20260902061156 67 144 0.0 0.0 0.00 0.00 0.00 86 1013.2
20260902060650 67 144 0.0 0.0 0.00 0.00 0.00 86 1012.9
20260902060143 67 143 0.0 0.0 0.00 0.00 0.00 85 1012.6
20260902055915 67 143 0.0 0.0 0.00 0.00 0.00 86 1012.7
20260902055141 67 143 0.0 0.0 0.00 0.00 0.00 86 1012.9
20260902054640 67 144 0.0 0.0 0.00 0.00 0.00 86 1013.2
20260902054140 67 144 0.0 0.0 0.00 0.00 0.00 86 1013.5
20260902053910 67 144 0.0 0.0 0.00 0.00 0.00 87 1013.5
20260902053138 67 143 0.0 0.0 0.00 0.00 0.00 86 1013.7
20260902052636 67 143 0.0 0.0 0.00 0.00 0.00 87 1013.7
20260902052132 67 144 0.0 0.0 0.00 0.00 0.00 87 1013.9
20260902051635 67 144 0.0 0.0 0.00 0.00 0.00 86 1014.0
20260902051134 67 144 0.0 0.0 0.00 0.00 0.00 86 1014.0
20260902050631 67 144 0.0 0.0 0.00 0.00 0.00 86 1013.9
20260902050130 67 144 0.0 0.0 0.00 0.00 0.00 86 1013.8
20260902045627 67 143 0.0 0.0 0.00 0.00 0.00 85 1013.7
20260902045125 67 143 0.0 0.0 0.00 0.00 0.00 85 1013.5
20260902044624 67 144 0.0 0.0 0.00 0.00 0.00 86 1013.2
20260902044125 67 144 0.0 0.0 0.00 0.00 0.00 87 1013.4
20260902043623 67 143 0.0 0.0 0.00 0.00 0.00 87 1013.5
20260902043119 67 143 0.0 0.0 0.00 0.00 0.00 87 1013.4
20260902042615 67 143 0.0 0.0 0.00 0.00 0.00 86 1013.2
20260902042121 67 143 0.0 0.0 0.00 0.00 0.00 85 1012.8
20260902042117 67 144 0.0 0.0 0.00 0.00 0.00 86 1013.0
20260902041115 68 144 0.0 0.0 0.00 0.00 0.00 84 1012.8
20260902040614 68 143 0.0 0.0 0.00 0.00 0.00 84 1013.1
20260902040113 68 143 0.0 0.0 0.00 0.00 0.00 84 1013.2
20260902035614 68 144 0.0 0.0 0.00 0.00 0.00 85 1013.2
20260902035114 68 143 0.0 0.0 0.00 0.00 0.00 85 1013.4
20260902034615 68 144 0.0 0.0 0.00 0.00 0.00 84 1013.2
20260902034110 68 144 0.0 0.0 0.00 0.00 0.00 83 1013.4
20260902033609 69 144 0.0 0.0 0.00 0.00 0.00 83 1013.5
20260902033109 69 143 0.0 0.0 0.00 0.00 0.00 83 1013.8
20260902032611 68 143 0.0 0.0 0.00 0.00 0.00 83 1013.9
20260902032110 68 144 0.0 0.0 0.00 0.00 0.00 84 1014.0
20260902031610 68 143 0.0 0.0 0.00 0.00 0.00 82 1013.9
20260902031109 68 143 0.0 0.0 0.00 0.00 0.00 82 1013.8
20260902030609 69 144 0.0 0.0 0.00 0.00 0.00 81 1013.6
20260902030342 69 144 0.0 0.0 0.00 0.00 0.00 81 1013.7
20260902025836 69 144 0.0 0.0 0.00 0.00 0.00 79 1013.7
20260902025107 69 144 0.0 0.0 0.00 0.00 0.00 79 1013.6
20260902024606 70 144 0.0 0.0 0.00 0.00 0.00 78 1013.5
20260902024106 70 144 0.0 0.0 0.00 0.00 0.00 78 1013.2
20260902023606 70 143 0.0 0.0 0.00 0.00 0.00 77 1013.4
20260902023336 71 144 0.0 0.0 0.00 0.00 0.00 75 1013.4
20260902022605 71 144 0.0 0.0 0.00 0.00 0.00 75 1013.5
20260902022105 71 143 0.0 0.0 0.00 0.00 0.00 74 1013.5
20260902021606 71 143 0.0 0.0 0.00 0.00 0.00 74 1013.5
20260902021101 71 143 0.0 0.0 0.00 0.00 0.00 74 1013.5
20260902020833 72 144 0.0 0.0 0.00 0.00 0.00 73 1013.5
20260902015602 72 144 0.0 0.0 0.00 0.00 0.00 73 1013.2
20260902015335 73 143 0.0 0.0 0.00 0.00 0.00 71 1013.4
20260902014601 73 144 0.0 0.0 0.00 0.00 0.00 69 1013.2
20260902014102 74 144 0.0 0.0 0.00 0.00 0.00 69 1013.2
20260902013832 74 144 0.0 0.0 0.00 0.00 0.00 68 1013.2
20260902013103 74 144 0.0 0.0 0.00 0.00 0.00 67 1013.1
20260902012559 75 144 0.0 0.0 0.00 0.00 0.00 66 1013.0
20260902012329 75 144 0.0 0.0 0.00 0.00 0.00 66 1012.9
20260902011559 75 144 0.0 0.0 0.00 0.00 0.00 65 1012.9
20260902011059 76 144 0.0 0.0 0.00 0.00 0.00 67 1012.9
20260902010558 76 144 0.0 0.0 0.00 0.00 0.00 64 1012.7
20260902010101 76 144 0.0 0.0 0.00 0.00 0.00 63 1012.6
20260902005600 76 143 0.0 0.0 0.00 0.00 0.00 64 1012.7
20260902005100 76 143 0.0 0.0 0.00 0.00 0.00 66 1012.8
20260902004602 77 143 0.0 0.0 0.00 0.00 0.00 61 1013.0
20260902004056 77 143 0.0 0.0 0.00 0.00 0.00 61 1012.9
20260902003556 77 143 0.0 0.0 0.00 0.00 0.00 61 1012.9
20260902003057 77 143 0.0 0.0 0.00 0.00 0.00 61 1013.0
20260902002555 78 143 0.0 0.0 0.00 0.00 0.00 60 1012.9
20260902002054 78 144 0.0 0.0 0.00 0.00 0.00 60 1013.0
20260902001555 78 143 0.0 0.0 0.00 0.00 0.00 58 1013.0
20260902001055 79 144 0.0 0.0 0.00 0.00 0.00 56 1013.1
20260902000553 80 143 0.0 0.0 0.00 0.00 0.00 56 1013.2
20260902000055 80 143 0.0 0.0 0.00 0.00 0.00 55 1013.0
20260901235551 81 143 0.0 0.0 0.00 0.00 0.00 54 1012.9
20260901235051 82 143 0.0 0.0 0.00 0.00 0.00 52 1013.1
20260901234550 82 143 0.0 0.0 0.00 0.00 0.00 52 1013.2
20260901234047 83 143 0.0 0.9 0.00 0.00 0.00 52 1013.2
20260901233551 83 143 0.0 0.9 0.00 0.00 0.00 51 1013.2
20260901233320 84 134 0.0 1.7 0.00 0.00 0.00 48 1013.1
20260901232549 84 140 0.0 1.7 0.00 0.00 0.00 48 1013.0
20260901232046 84 149 0.0 0.9 0.00 0.00 0.00 48 1013.0
20260901231545 85 158 0.0 1.7 0.00 0.00 0.00 46 1013.0
20260901231043 85 159 0.0 2.6 0.00 0.00 0.00 47 1013.1
20260901230545 85 146 0.0 2.6 0.00 0.00 0.00 48 1013.0
20260901230043 85 125 0.9 2.6 0.00 0.00 0.00 46 1013.1
20260901225540 85 148 0.9 2.6 0.00 0.00 0.00 45 1013.2
20260901225306 85 132 0.9 1.7 0.00 0.00 0.00 45 1013.2
20260901224538 85 132 0.0 1.7 0.00 0.00 0.00 50 1013.2
20260901224029 84 157 0.0 0.9 0.00 0.00 0.00 50 1013.1
20260901223528 84 136 0.0 0.9 0.00 0.00 0.00 48 1013.1
20260901223027 84 143 0.0 1.7 0.00 0.00 0.00 47 1013.0
20260901222527 84 140 0.9 1.7 0.00 0.00 0.00 45 1013.1
20260901222026 85 154 0.0 1.7 0.00 0.00 0.00 43 1013.0
20260901221525 85 228 0.9 4.3 0.00 0.00 0.00 42 1013.0
20260901221021 85 226 0.9 4.3 0.00 0.00 0.00 41 1013.0
20260901220522 85 218 0.9 3.5 0.00 0.00 0.00 43 1013.1
20260901220020 85 238 0.9 2.6 0.00 0.00 0.00 42 1013.0
20260901215521 85 169 0.9 2.6 0.00 0.00 0.00 44 1013.0
20260901215019 86 214 0.0 1.7 0.00 0.00 0.00 42 1013.0
20260901214518 86 190 0.9 2.6 0.00 0.00 0.00 41 1012.9
20260901214248 86 149 1.7 2.6 0.00 0.00 0.00 41 1012.9
20260901213748 86 156 0.9 2.6 0.00 0.00 0.00 40 1012.8
20260901213016 87 167 0.9 2.6 0.00 0.00 0.00 40 1012.7
20260901212515 87 222 0.9 1.7 0.00 0.00 0.00 38 1012.7
20260901212019 87 170 0.9 1.7 0.00 0.00 0.00 39 1012.8
20260901211512 87 154 0.9 1.7 0.00 0.00 0.00 40 1012.7